Year,Month,Day,Hour,Minute,Value (Times are PST for temperature in C)
2020,04,10,00,00,7.90
2020,04,10,00,01,7.90
2020,04,10,00,02,7.90
2020,04,10,00,03,7.90
2020,04,10,00,04,7.90
2020,04,10,00,05,7.90
2020,04,10,00,06,7.90
2020,04,10,00,07,7.90
2020,04,10,00,08,7.90
2020,04,10,00,09,7.80
2020,04,10,00,10,7.80
2020,04,10,00,11,7.80
2020,04,10,00,12,7.80
2020,04,10,00,13,7.80
2020,04,10,00,14,7.80
2020,04,10,00,15,7.80
2020,04,10,00,16,7.70
2020,04,10,00,17,7.70
2020,04,10,00,18,7.70
2020,04,10,00,19,7.70
2020,04,10,00,20,7.70
2020,04,10,00,21,7.70
2020,04,10,00,22,7.60
2020,04,10,00,23,7.70
2020,04,10,00,24,7.70
2020,04,10,00,25,7.60
2020,04,10,00,26,7.60
2020,04,10,00,27,7.70
2020,04,10,00,28,7.70
2020,04,10,00,29,7.70
2020,04,10,00,30,7.70
2020,04,10,00,31,7.70
2020,04,10,00,32,7.70
2020,04,10,00,33,7.60
2020,04,10,00,34,7.50
2020,04,10,00,35,7.50
2020,04,10,00,36,7.50
2020,04,10,00,37,7.50
2020,04,10,00,38,7.50
2020,04,10,00,39,7.50
2020,04,10,00,40,7.40
2020,04,10,00,41,7.20
2020,04,10,00,42,7.10
2020,04,10,00,43,7.00
2020,04,10,00,44,6.90
2020,04,10,00,45,6.90
2020,04,10,00,46,6.80
2020,04,10,00,47,6.80
2020,04,10,00,48,6.70
2020,04,10,00,49,6.70
2020,04,10,00,50,6.60
2020,04,10,00,51,6.60
2020,04,10,00,52,6.70
2020,04,10,00,53,6.70
2020,04,10,00,54,6.70
2020,04,10,00,55,6.70
2020,04,10,00,56,6.70
2020,04,10,00,57,6.70
2020,04,10,00,58,6.60
2020,04,10,00,59,6.60
2020,04,10,01,00,6.60
2020,04,10,01,01,6.60
2020,04,10,01,02,6.60
2020,04,10,01,03,6.50
2020,04,10,01,04,6.50
2020,04,10,01,05,6.40
2020,04,10,01,06,6.40
2020,04,10,01,07,6.40
2020,04,10,01,08,6.30
2020,04,10,01,09,6.30
2020,04,10,01,10,6.30
2020,04,10,01,11,6.20
2020,04,10,01,12,6.20
2020,04,10,01,13,6.20
2020,04,10,01,14,6.20
2020,04,10,01,15,6.20
2020,04,10,01,16,6.10
2020,04,10,01,17,6.10
2020,04,10,01,18,6.10
2020,04,10,01,19,6.10
2020,04,10,01,20,6.10
2020,04,10,01,21,6.10
2020,04,10,01,22,6.10
2020,04,10,01,23,6.10
2020,04,10,01,24,6.00
2020,04,10,01,25,6.00
2020,04,10,01,26,6.00
2020,04,10,01,27,6.00
2020,04,10,01,28,6.00
2020,04,10,01,29,5.90
2020,04,10,01,30,5.90
2020,04,10,01,31,5.90
2020,04,10,01,32,5.90
2020,04,10,01,33,5.90
2020,04,10,01,34,5.80
2020,04,10,01,35,5.80
2020,04,10,01,36,5.80
2020,04,10,01,37,5.80
2020,04,10,01,38,5.80
2020,04,10,01,39,5.70
2020,04,10,01,40,5.70
2020,04,10,01,41,5.70
2020,04,10,01,42,5.70
2020,04,10,01,43,5.70
2020,04,10,01,44,5.70
2020,04,10,01,45,5.70
2020,04,10,01,46,5.70
2020,04,10,01,47,5.70
2020,04,10,01,48,5.70
2020,04,10,01,49,5.60
2020,04,10,01,50,5.60
2020,04,10,01,51,5.60
2020,04,10,01,52,5.60
2020,04,10,01,53,5.60
2020,04,10,01,54,5.60
2020,04,10,01,55,5.60
2020,04,10,01,56,5.50
2020,04,10,01,57,5.50
2020,04,10,01,58,5.50
2020,04,10,01,59,5.50
2020,04,10,02,00,5.50
2020,04,10,02,01,5.50
2020,04,10,02,02,5.50
2020,04,10,02,03,5.50
2020,04,10,02,04,5.50
2020,04,10,02,05,5.40
2020,04,10,02,06,5.40
2020,04,10,02,07,5.40
2020,04,10,02,08,5.40
2020,04,10,02,09,5.40
2020,04,10,02,10,5.40
2020,04,10,02,11,5.40
2020,04,10,02,12,5.40
2020,04,10,02,13,5.40
2020,04,10,02,14,5.40
2020,04,10,02,15,5.30
2020,04,10,02,16,5.30
2020,04,10,02,17,5.30
2020,04,10,02,18,5.30
2020,04,10,02,19,5.30
2020,04,10,02,20,5.30
2020,04,10,02,21,5.30
2020,04,10,02,22,5.30
2020,04,10,02,23,5.30
2020,04,10,02,24,5.30
2020,04,10,02,25,5.30
2020,04,10,02,26,5.40
2020,04,10,02,27,5.40
2020,04,10,02,28,5.40
2020,04,10,02,29,5.40
2020,04,10,02,30,5.40
2020,04,10,02,31,5.40
2020,04,10,02,32,5.40
2020,04,10,02,33,5.40
2020,04,10,02,34,5.40
2020,04,10,02,35,5.40
2020,04,10,02,36,5.40
2020,04,10,02,37,5.30
2020,04,10,02,38,5.30
2020,04,10,02,39,5.30
2020,04,10,02,40,5.30
2020,04,10,02,41,5.30
2020,04,10,02,42,5.30
2020,04,10,02,43,5.30
2020,04,10,02,44,5.30
2020,04,10,02,45,5.30
2020,04,10,02,46,5.30
2020,04,10,02,47,5.30
2020,04,10,02,48,5.30
2020,04,10,02,49,5.30
2020,04,10,02,50,5.30
2020,04,10,02,51,5.30
2020,04,10,02,52,5.30
2020,04,10,02,53,5.30
2020,04,10,02,54,5.30
2020,04,10,02,55,5.30
2020,04,10,02,56,5.30
2020,04,10,02,57,5.30
2020,04,10,02,58,5.30
2020,04,10,02,59,5.40
2020,04,10,03,00,5.40
2020,04,10,03,01,5.50
2020,04,10,03,02,5.50
2020,04,10,03,03,5.60
2020,04,10,03,04,5.60
2020,04,10,03,05,5.60
2020,04,10,03,06,5.60
2020,04,10,03,07,5.50
2020,04,10,03,08,5.50
2020,04,10,03,09,5.50
2020,04,10,03,10,5.50
2020,04,10,03,11,5.50
2020,04,10,03,12,5.50
2020,04,10,03,13,5.60
2020,04,10,03,14,5.60
2020,04,10,03,15,5.60
2020,04,10,03,16,5.60
2020,04,10,03,17,5.70
2020,04,10,03,18,5.70
2020,04,10,03,19,5.70
2020,04,10,03,20,5.70
2020,04,10,03,21,5.80
2020,04,10,03,22,5.80
2020,04,10,03,23,5.80
2020,04,10,03,24,5.80
2020,04,10,03,25,5.80
2020,04,10,03,26,5.80
2020,04,10,03,27,5.80
2020,04,10,03,28,5.80
2020,04,10,03,29,5.80
2020,04,10,03,30,5.70
2020,04,10,03,31,5.70
2020,04,10,03,32,5.70
2020,04,10,03,33,5.60
2020,04,10,03,34,5.60
2020,04,10,03,35,5.50
2020,04,10,03,36,5.50
2020,04,10,03,37,5.60
2020,04,10,03,38,5.60
2020,04,10,03,39,5.60
2020,04,10,03,40,5.60
2020,04,10,03,41,5.60
2020,04,10,03,42,5.60
2020,04,10,03,43,5.60
2020,04,10,03,44,5.60
2020,04,10,03,45,5.60
2020,04,10,03,46,5.60
2020,04,10,03,47,5.60
2020,04,10,03,48,5.60
2020,04,10,03,49,5.60
2020,04,10,03,50,5.60
2020,04,10,03,51,5.60
2020,04,10,03,52,5.60
2020,04,10,03,53,5.50
2020,04,10,03,54,5.50
2020,04,10,03,55,5.50
2020,04,10,03,56,5.50
2020,04,10,03,57,5.40
2020,04,10,03,58,5.40
2020,04,10,03,59,5.40
2020,04,10,04,00,5.40
2020,04,10,04,01,5.40
2020,04,10,04,02,5.40
2020,04,10,04,03,5.40
2020,04,10,04,04,5.30
2020,04,10,04,05,5.30
2020,04,10,04,06,5.30
2020,04,10,04,07,5.30
2020,04,10,04,08,5.30
2020,04,10,04,09,5.30
2020,04,10,04,10,5.30
2020,04,10,04,11,5.30
2020,04,10,04,12,5.30
2020,04,10,04,13,5.30
2020,04,10,04,14,5.30
2020,04,10,04,15,5.30
2020,04,10,04,16,5.30
2020,04,10,04,17,5.30
2020,04,10,04,18,5.30
2020,04,10,04,19,5.30
2020,04,10,04,20,5.30
2020,04,10,04,21,5.30
2020,04,10,04,22,5.30
2020,04,10,04,23,5.30
2020,04,10,04,24,5.30
2020,04,10,04,25,5.30
2020,04,10,04,26,5.30
2020,04,10,04,27,5.30
2020,04,10,04,28,5.30
2020,04,10,04,29,5.20
2020,04,10,04,30,5.20
2020,04,10,04,31,5.20
2020,04,10,04,32,5.20
2020,04,10,04,33,5.20
2020,04,10,04,34,5.20
2020,04,10,04,35,5.20
2020,04,10,04,36,5.20
2020,04,10,04,37,5.20
2020,04,10,04,38,5.20
2020,04,10,04,39,5.20
2020,04,10,04,40,5.20
2020,04,10,04,41,5.20
2020,04,10,04,42,5.20
2020,04,10,04,43,5.20
2020,04,10,04,44,5.20
2020,04,10,04,45,5.20
2020,04,10,04,46,5.20
2020,04,10,04,47,5.20
2020,04,10,04,48,5.10
2020,04,10,04,49,5.10
2020,04,10,04,50,5.10
2020,04,10,04,51,5.00
2020,04,10,04,52,5.00
2020,04,10,04,53,4.90
2020,04,10,04,54,4.90
2020,04,10,04,55,4.90
2020,04,10,04,56,4.90
2020,04,10,04,57,4.90
2020,04,10,04,58,4.90
2020,04,10,04,59,4.80
2020,04,10,05,00,4.80
2020,04,10,05,01,4.80
2020,04,10,05,02,4.80
2020,04,10,05,03,4.80
2020,04,10,05,04,4.80
2020,04,10,05,05,4.80
2020,04,10,05,06,4.80
2020,04,10,05,07,4.80
2020,04,10,05,08,4.80
2020,04,10,05,09,4.80
2020,04,10,05,10,4.90
2020,04,10,05,11,4.90
2020,04,10,05,12,4.90
2020,04,10,05,13,4.90
2020,04,10,05,14,4.90
2020,04,10,05,15,4.90
2020,04,10,05,16,4.90
2020,04,10,05,17,4.90
2020,04,10,05,18,5.00
2020,04,10,05,19,5.00
2020,04,10,05,20,5.00
2020,04,10,05,21,5.00
2020,04,10,05,22,5.10
2020,04,10,05,23,5.10
2020,04,10,05,24,5.10
2020,04,10,05,25,5.20
2020,04,10,05,26,5.20
2020,04,10,05,27,5.20
2020,04,10,05,28,5.20
2020,04,10,05,29,5.20
2020,04,10,05,30,5.20
2020,04,10,05,31,5.30
2020,04,10,05,32,5.40
2020,04,10,05,33,5.40
2020,04,10,05,34,5.40
2020,04,10,05,35,5.40
2020,04,10,05,36,5.40
2020,04,10,05,37,5.40
2020,04,10,05,38,5.40
2020,04,10,05,39,5.40
2020,04,10,05,40,5.30
2020,04,10,05,41,5.10
2020,04,10,05,42,4.90
2020,04,10,05,43,4.80
2020,04,10,05,44,4.70
2020,04,10,05,45,4.60
2020,04,10,05,46,4.50
2020,04,10,05,47,4.50
2020,04,10,05,48,4.50
2020,04,10,05,49,4.50
2020,04,10,05,50,4.60
2020,04,10,05,51,4.60
2020,04,10,05,52,4.70
2020,04,10,05,53,4.70
2020,04,10,05,54,4.70
2020,04,10,05,55,4.80
2020,04,10,05,56,4.80
2020,04,10,05,57,4.80
2020,04,10,05,58,4.80
2020,04,10,05,59,4.80
2020,04,10,06,00,4.80
2020,04,10,06,01,4.70
2020,04,10,06,02,4.70
2020,04,10,06,03,4.70
2020,04,10,06,04,4.70
2020,04,10,06,05,4.70
2020,04,10,06,06,4.70
2020,04,10,06,07,4.70
2020,04,10,06,08,4.70
2020,04,10,06,09,4.70
2020,04,10,06,10,4.70
2020,04,10,06,11,4.60
2020,04,10,06,12,4.60
2020,04,10,06,13,4.60
2020,04,10,06,14,4.60
2020,04,10,06,15,4.60
2020,04,10,06,16,4.60
2020,04,10,06,17,4.60
2020,04,10,06,18,4.60
2020,04,10,06,19,4.60
2020,04,10,06,20,4.60
2020,04,10,06,21,4.60
2020,04,10,06,22,4.50
2020,04,10,06,23,4.60
2020,04,10,06,24,4.60
2020,04,10,06,25,4.60
2020,04,10,06,26,4.60
2020,04,10,06,27,4.50
2020,04,10,06,28,4.60
2020,04,10,06,29,4.60
2020,04,10,06,30,4.50
2020,04,10,06,31,4.50
2020,04,10,06,32,4.50
2020,04,10,06,33,4.50
2020,04,10,06,34,4.50
2020,04,10,06,35,4.60
2020,04,10,06,36,4.60
2020,04,10,06,37,4.60
2020,04,10,06,38,4.70
2020,04,10,06,39,4.70
2020,04,10,06,40,4.70
2020,04,10,06,41,4.70
2020,04,10,06,42,4.80
2020,04,10,06,43,4.80
2020,04,10,06,44,4.80
2020,04,10,06,45,4.80
2020,04,10,06,46,4.80
2020,04,10,06,47,4.80
2020,04,10,06,48,4.80
2020,04,10,06,49,4.80
2020,04,10,06,50,4.80
2020,04,10,06,51,4.80
2020,04,10,06,52,4.80
2020,04,10,06,53,4.90
2020,04,10,06,54,4.90
2020,04,10,06,55,4.90
2020,04,10,06,56,4.90
2020,04,10,06,57,4.90
2020,04,10,06,58,5.00
2020,04,10,06,59,4.90
2020,04,10,07,00,4.90
2020,04,10,07,01,4.80
2020,04,10,07,02,4.80
2020,04,10,07,03,4.80
2020,04,10,07,04,4.80
2020,04,10,07,05,4.80
2020,04,10,07,06,4.80
2020,04,10,07,07,4.80
2020,04,10,07,08,4.80
2020,04,10,07,09,4.80
2020,04,10,07,10,4.80
2020,04,10,07,11,4.80
2020,04,10,07,12,4.90
2020,04,10,07,13,5.00
2020,04,10,07,14,5.10
2020,04,10,07,15,5.10
2020,04,10,07,16,5.20
2020,04,10,07,17,5.30
2020,04,10,07,18,5.30
2020,04,10,07,19,5.40
2020,04,10,07,20,5.50
2020,04,10,07,21,5.50
2020,04,10,07,22,5.60
2020,04,10,07,23,5.60
2020,04,10,07,24,5.70
2020,04,10,07,25,5.70
2020,04,10,07,26,5.80
2020,04,10,07,27,5.90
2020,04,10,07,28,6.00
2020,04,10,07,29,6.10
2020,04,10,07,30,6.10
2020,04,10,07,31,6.20
2020,04,10,07,32,6.20
2020,04,10,07,33,6.20
2020,04,10,07,34,6.30
2020,04,10,07,35,6.30
2020,04,10,07,36,6.30
2020,04,10,07,37,6.30
2020,04,10,07,38,6.30
2020,04,10,07,39,6.40
2020,04,10,07,40,6.50
2020,04,10,07,41,6.50
2020,04,10,07,42,6.50
2020,04,10,07,43,6.60
2020,04,10,07,44,6.60
2020,04,10,07,45,6.60
2020,04,10,07,46,6.60
2020,04,10,07,47,6.70
2020,04,10,07,48,6.70
2020,04,10,07,49,6.80
2020,04,10,07,50,6.80
2020,04,10,07,51,6.80
2020,04,10,07,52,6.80
2020,04,10,07,53,6.90
2020,04,10,07,54,6.90
2020,04,10,07,55,7.00
2020,04,10,07,56,7.10
2020,04,10,07,57,7.20
2020,04,10,07,58,7.20
2020,04,10,07,59,7.30
2020,04,10,08,00,7.40
2020,04,10,08,01,7.40
2020,04,10,08,02,7.40
2020,04,10,08,03,7.50
2020,04,10,08,04,7.50
2020,04,10,08,05,7.50
2020,04,10,08,06,7.50
2020,04,10,08,07,7.50
2020,04,10,08,08,7.40
2020,04,10,08,09,7.40
2020,04,10,08,10,7.40
2020,04,10,08,11,7.40
2020,04,10,08,12,7.40
2020,04,10,08,13,7.40
2020,04,10,08,14,7.40
2020,04,10,08,15,7.50
2020,04,10,08,16,7.50
2020,04,10,08,17,7.50
2020,04,10,08,18,7.50
2020,04,10,08,19,7.60
2020,04,10,08,20,7.60
2020,04,10,08,21,7.60
2020,04,10,08,22,7.70
2020,04,10,08,23,7.70
2020,04,10,08,24,7.70
2020,04,10,08,25,7.80
2020,04,10,08,26,7.80
2020,04,10,08,27,7.80
2020,04,10,08,28,7.80
2020,04,10,08,29,7.80
2020,04,10,08,30,7.80
2020,04,10,08,31,7.80
2020,04,10,08,32,7.90
2020,04,10,08,33,7.90
2020,04,10,08,34,7.90
2020,04,10,08,35,7.90
2020,04,10,08,36,7.90
2020,04,10,08,37,7.90
2020,04,10,08,38,7.90
2020,04,10,08,39,8.00
2020,04,10,08,40,8.00
2020,04,10,08,41,8.00
2020,04,10,08,42,8.00
2020,04,10,08,43,8.10
2020,04,10,08,44,8.10
2020,04,10,08,45,8.20
2020,04,10,08,46,8.20
2020,04,10,08,47,8.30
2020,04,10,08,48,8.30
2020,04,10,08,49,8.40
2020,04,10,08,50,8.40
2020,04,10,08,51,8.40
2020,04,10,08,52,8.50
2020,04,10,08,53,8.50
2020,04,10,08,54,8.50
2020,04,10,08,55,8.50
2020,04,10,08,56,8.60
2020,04,10,08,57,8.60
2020,04,10,08,58,8.60
2020,04,10,08,59,8.60
2020,04,10,09,00,8.60
2020,04,10,09,01,8.70
2020,04,10,09,02,8.80
2020,04,10,09,03,8.80
2020,04,10,09,04,8.80
2020,04,10,09,05,8.80
2020,04,10,09,06,8.80
2020,04,10,09,07,8.80
2020,04,10,09,08,8.80
2020,04,10,09,09,8.80
2020,04,10,09,10,8.80
2020,04,10,09,11,8.90
2020,04,10,09,12,8.90
2020,04,10,09,13,9.00
2020,04,10,09,14,9.00
2020,04,10,09,15,9.00
2020,04,10,09,16,9.00
2020,04,10,09,17,9.00
2020,04,10,09,18,9.00
2020,04,10,09,19,9.10
2020,04,10,09,20,9.10
2020,04,10,09,21,9.10
2020,04,10,09,22,9.10
2020,04,10,09,23,9.10
2020,04,10,09,24,9.20
2020,04,10,09,25,9.30
2020,04,10,09,26,9.30
2020,04,10,09,27,9.40
2020,04,10,09,28,9.40
2020,04,10,09,29,9.40
2020,04,10,09,30,9.50
2020,04,10,09,31,9.50
2020,04,10,09,32,9.50
2020,04,10,09,33,9.60
2020,04,10,09,34,9.70
2020,04,10,09,35,9.70
2020,04,10,09,36,9.70
2020,04,10,09,37,9.80
2020,04,10,09,38,9.80
2020,04,10,09,39,9.80
2020,04,10,09,40,9.80
2020,04,10,09,41,9.80
2020,04,10,09,42,9.80
2020,04,10,09,43,9.80
2020,04,10,09,44,9.80
2020,04,10,09,45,9.90
2020,04,10,09,46,9.90
2020,04,10,09,47,9.90
2020,04,10,09,48,10.00
2020,04,10,09,49,9.90
2020,04,10,09,50,10.00
2020,04,10,09,51,10.00
2020,04,10,09,52,10.10
2020,04,10,09,53,10.10
2020,04,10,09,54,10.20
2020,04,10,09,55,10.20
2020,04,10,09,56,10.20
2020,04,10,09,57,10.10
2020,04,10,09,58,10.10
2020,04,10,09,59,10.10
2020,04,10,10,00,10.10
2020,04,10,10,01,10.10
2020,04,10,10,02,10.20
2020,04,10,10,03,10.20
2020,04,10,10,04,10.20
2020,04,10,10,05,10.10
2020,04,10,10,06,10.00
2020,04,10,10,07,9.90
2020,04,10,10,08,9.90
2020,04,10,10,09,10.00
2020,04,10,10,10,10.00
2020,04,10,10,11,10.10
2020,04,10,10,12,10.10
2020,04,10,10,13,10.10
2020,04,10,10,14,10.20
2020,04,10,10,15,10.20
2020,04,10,10,16,10.20
2020,04,10,10,17,10.10
2020,04,10,10,18,10.10
2020,04,10,10,19,10.10
2020,04,10,10,20,10.10
2020,04,10,10,21,10.10
2020,04,10,10,22,10.20
2020,04,10,10,23,10.20
2020,04,10,10,24,10.20
2020,04,10,10,25,10.30
2020,04,10,10,26,10.30
2020,04,10,10,27,10.30
2020,04,10,10,28,10.40
2020,04,10,10,29,10.40
2020,04,10,10,30,10.50
2020,04,10,10,31,10.50
2020,04,10,10,32,10.60
2020,04,10,10,33,10.70
2020,04,10,10,34,10.70
2020,04,10,10,35,10.70
2020,04,10,10,36,10.70
2020,04,10,10,37,10.70
2020,04,10,10,38,10.80
2020,04,10,10,39,10.80
2020,04,10,10,40,10.80
2020,04,10,10,41,10.80
2020,04,10,10,42,10.80
2020,04,10,10,43,10.80
2020,04,10,10,44,10.80
2020,04,10,10,45,10.80
2020,04,10,10,46,10.80
2020,04,10,10,47,10.90
2020,04,10,10,48,10.90
2020,04,10,10,49,10.90
2020,04,10,10,50,10.90
2020,04,10,10,51,10.90
2020,04,10,10,52,10.90
2020,04,10,10,53,10.90
2020,04,10,10,54,11.00
2020,04,10,10,55,11.00
2020,04,10,10,56,11.00
2020,04,10,10,57,11.00
2020,04,10,10,58,10.90
2020,04,10,10,59,10.90
2020,04,10,11,00,11.10
2020,04,10,11,01,11.10
2020,04,10,11,02,11.10
2020,04,10,11,03,11.10
2020,04,10,11,04,11.10
2020,04,10,11,05,11.10
2020,04,10,11,06,11.10
2020,04,10,11,07,11.00
2020,04,10,11,08,11.10
2020,04,10,11,09,11.10
2020,04,10,11,10,11.00
2020,04,10,11,11,11.00
2020,04,10,11,12,11.10
2020,04,10,11,13,11.10
2020,04,10,11,14,11.10
2020,04,10,11,15,11.00
2020,04,10,11,16,11.00
2020,04,10,11,17,11.00
2020,04,10,11,18,11.00
2020,04,10,11,19,11.10
2020,04,10,11,20,11.10
2020,04,10,11,21,11.20
2020,04,10,11,22,11.30
2020,04,10,11,23,11.40
2020,04,10,11,24,11.50
2020,04,10,11,25,11.60
2020,04,10,11,26,11.60
2020,04,10,11,27,11.50
2020,04,10,11,28,11.50
2020,04,10,11,29,11.60
2020,04,10,11,30,11.70
2020,04,10,11,31,11.80
2020,04,10,11,32,11.70
2020,04,10,11,33,11.70
2020,04,10,11,34,11.60
2020,04,10,11,35,11.60
2020,04,10,11,36,11.60
2020,04,10,11,37,11.60
2020,04,10,11,38,11.70
2020,04,10,11,39,11.80
2020,04,10,11,40,11.70
2020,04,10,11,41,11.70
2020,04,10,11,42,11.70
2020,04,10,11,43,11.70
2020,04,10,11,44,11.70
2020,04,10,11,45,11.70
2020,04,10,11,46,11.70
2020,04,10,11,47,11.70
2020,04,10,11,48,11.80
2020,04,10,11,49,11.80
2020,04,10,11,50,11.90
2020,04,10,11,51,11.90
2020,04,10,11,52,12.00
2020,04,10,11,53,12.10
2020,04,10,11,54,12.20
2020,04,10,11,55,12.30
2020,04,10,11,56,12.50
2020,04,10,11,57,12.60
2020,04,10,11,58,12.60
2020,04,10,11,59,12.60
2020,04,10,12,00,12.50
2020,04,10,12,01,12.50
2020,04,10,12,02,12.50
2020,04,10,12,03,12.60
2020,04,10,12,04,12.70
2020,04,10,12,05,12.80
2020,04,10,12,06,12.70
2020,04,10,12,07,12.80
2020,04,10,12,08,12.80
2020,04,10,12,09,12.80
2020,04,10,12,10,12.70
2020,04,10,12,11,12.70
2020,04,10,12,12,12.70
2020,04,10,12,13,12.80
2020,04,10,12,14,12.90
2020,04,10,12,15,12.90
2020,04,10,12,16,13.00
2020,04,10,12,17,13.10
2020,04,10,12,18,13.20
2020,04,10,12,19,13.10
2020,04,10,12,20,13.10
2020,04,10,12,21,13.00
2020,04,10,12,22,12.90
2020,04,10,12,23,12.90
2020,04,10,12,24,13.00
2020,04,10,12,25,13.10
2020,04,10,12,26,13.20
2020,04,10,12,27,13.30
2020,04,10,12,28,13.30
2020,04,10,12,29,13.40
2020,04,10,12,30,13.50
2020,04,10,12,31,13.50
2020,04,10,12,32,13.60
2020,04,10,12,33,13.60
2020,04,10,12,34,13.60
2020,04,10,12,35,13.60
2020,04,10,12,36,13.70
2020,04,10,12,37,13.70
2020,04,10,12,38,13.80
2020,04,10,12,39,13.80
2020,04,10,12,40,13.80
2020,04,10,12,41,13.80
2020,04,10,12,42,13.80
2020,04,10,12,43,13.80
2020,04,10,12,44,13.80
2020,04,10,12,45,13.80
2020,04,10,12,46,13.80
2020,04,10,12,47,13.80
2020,04,10,12,48,13.80
2020,04,10,12,49,13.90
2020,04,10,12,50,14.00
2020,04,10,12,51,14.00
2020,04,10,12,52,13.90
2020,04,10,12,53,13.70
2020,04,10,12,54,13.60
2020,04,10,12,55,13.60
2020,04,10,12,56,13.60
2020,04,10,12,57,13.70
2020,04,10,12,58,13.80
2020,04,10,12,59,14.00
2020,04,10,13,00,14.10
2020,04,10,13,01,14.10
2020,04,10,13,02,14.10
2020,04,10,13,03,14.10
2020,04,10,13,04,14.00
2020,04,10,13,05,14.00
2020,04,10,13,06,14.10
2020,04,10,13,07,14.10
2020,04,10,13,08,14.10
2020,04,10,13,09,14.10
2020,04,10,13,10,14.00
2020,04,10,13,11,14.00
2020,04,10,13,12,14.00
2020,04,10,13,13,14.10
2020,04,10,13,14,14.10
2020,04,10,13,15,14.10
2020,04,10,13,16,14.10
2020,04,10,13,17,14.30
2020,04,10,13,18,14.40
2020,04,10,13,19,14.40
2020,04,10,13,20,14.40
2020,04,10,13,21,14.40
2020,04,10,13,22,14.30
2020,04,10,13,23,14.20
2020,04,10,13,24,14.20
2020,04,10,13,25,14.20
2020,04,10,13,26,14.10
2020,04,10,13,27,14.00
2020,04,10,13,28,13.90
2020,04,10,13,29,13.90
2020,04,10,13,30,13.80
2020,04,10,13,31,13.80
2020,04,10,13,32,13.80
2020,04,10,13,33,13.80
2020,04,10,13,34,13.80
2020,04,10,13,35,13.80
2020,04,10,13,36,13.80
2020,04,10,13,37,13.90
2020,04,10,13,38,13.90
2020,04,10,13,39,13.90
2020,04,10,13,40,13.80
2020,04,10,13,41,13.70
2020,04,10,13,42,13.70
2020,04,10,13,43,13.80
2020,04,10,13,44,13.80
2020,04,10,13,45,13.80
2020,04,10,13,46,13.90
2020,04,10,13,47,14.00
2020,04,10,13,48,13.90
2020,04,10,13,49,13.80
2020,04,10,13,50,13.70
2020,04,10,13,51,13.70
2020,04,10,13,52,13.70
2020,04,10,13,53,13.70
2020,04,10,13,54,13.70
2020,04,10,13,55,13.70
2020,04,10,13,56,13.60
2020,04,10,13,57,13.60
2020,04,10,13,58,13.50
2020,04,10,13,59,13.50
2020,04,10,14,00,13.50
2020,04,10,14,01,13.50
2020,04,10,14,02,13.50
2020,04,10,14,03,13.50
2020,04,10,14,04,13.30
2020,04,10,14,05,13.30
2020,04,10,14,06,13.30
2020,04,10,14,07,13.20
2020,04,10,14,08,13.20
2020,04,10,14,09,13.30
2020,04,10,14,10,13.40
2020,04,10,14,11,13.30
2020,04,10,14,12,13.40
2020,04,10,14,13,13.40
2020,04,10,14,14,13.40
2020,04,10,14,15,13.50
2020,04,10,14,16,13.60
2020,04,10,14,17,13.60
2020,04,10,14,18,13.60
2020,04,10,14,19,13.70
2020,04,10,14,20,13.70
2020,04,10,14,21,13.80
2020,04,10,14,22,13.90
2020,04,10,14,23,13.90
2020,04,10,14,24,13.90
2020,04,10,14,25,13.90
2020,04,10,14,26,13.90
2020,04,10,14,27,13.90
2020,04,10,14,28,13.80
2020,04,10,14,29,13.70
2020,04,10,14,30,13.60
2020,04,10,14,31,13.50
2020,04,10,14,32,13.50
2020,04,10,14,33,13.40
2020,04,10,14,34,13.40
2020,04,10,14,35,13.40
2020,04,10,14,36,13.30
2020,04,10,14,37,13.40
2020,04,10,14,38,13.50
2020,04,10,14,39,13.60
2020,04,10,14,40,13.60
2020,04,10,14,41,13.60
2020,04,10,14,42,13.50
2020,04,10,14,43,13.40
2020,04,10,14,44,13.20
2020,04,10,14,45,13.10
2020,04,10,14,46,13.10
2020,04,10,14,47,13.10
2020,04,10,14,48,13.10
2020,04,10,14,49,13.10
2020,04,10,14,50,13.10
2020,04,10,14,51,13.00
2020,04,10,14,52,13.10
2020,04,10,14,53,13.10
2020,04,10,14,54,13.20
2020,04,10,14,55,13.30
2020,04,10,14,56,13.30
2020,04,10,14,57,13.20
2020,04,10,14,58,13.20
2020,04,10,14,59,13.20
2020,04,10,15,00,13.20
2020,04,10,15,01,13.20
2020,04,10,15,02,13.10
2020,04,10,15,03,13.00
2020,04,10,15,04,13.00
2020,04,10,15,05,13.10
2020,04,10,15,06,13.20
2020,04,10,15,07,13.30
2020,04,10,15,08,13.40
2020,04,10,15,09,13.30
2020,04,10,15,10,13.30
2020,04,10,15,11,13.40
2020,04,10,15,12,13.30
2020,04,10,15,13,13.30
2020,04,10,15,14,13.30
2020,04,10,15,15,13.20
2020,04,10,15,16,13.10
2020,04,10,15,17,13.00
2020,04,10,15,18,13.00
2020,04,10,15,19,12.90
2020,04,10,15,20,13.00
2020,04,10,15,21,13.10
2020,04,10,15,22,13.00
2020,04,10,15,23,12.90
2020,04,10,15,24,12.90
2020,04,10,15,25,12.90
2020,04,10,15,26,12.90
2020,04,10,15,27,13.00
2020,04,10,15,28,12.90
2020,04,10,15,29,12.90
2020,04,10,15,30,13.00
2020,04,10,15,31,12.90
2020,04,10,15,32,12.90
2020,04,10,15,33,12.90
2020,04,10,15,34,12.90
2020,04,10,15,35,12.80
2020,04,10,15,36,12.70
2020,04,10,15,37,12.70
2020,04,10,15,38,12.70
2020,04,10,15,39,12.70
2020,04,10,15,40,12.70
2020,04,10,15,41,12.60
2020,04,10,15,42,12.60
2020,04,10,15,43,12.70
2020,04,10,15,44,12.70
2020,04,10,15,45,12.80
2020,04,10,15,46,12.80
2020,04,10,15,47,12.90
2020,04,10,15,48,12.90
2020,04,10,15,49,12.90
2020,04,10,15,50,12.80
2020,04,10,15,51,12.80
2020,04,10,15,52,12.80
2020,04,10,15,53,12.80
2020,04,10,15,54,12.70
2020,04,10,15,55,12.70
2020,04,10,15,56,12.70
2020,04,10,15,57,12.70
2020,04,10,15,58,12.70
2020,04,10,15,59,12.80
2020,04,10,16,00,12.80
2020,04,10,16,01,12.80
2020,04,10,16,02,12.80
2020,04,10,16,03,12.80
2020,04,10,16,04,12.70
2020,04,10,16,05,12.50
2020,04,10,16,06,12.30
2020,04,10,16,07,12.20
2020,04,10,16,08,12.10
2020,04,10,16,09,12.10
2020,04,10,16,10,12.00
2020,04,10,16,11,12.10
2020,04,10,16,12,12.00
2020,04,10,16,13,12.00
2020,04,10,16,14,11.90
2020,04,10,16,15,11.90
2020,04,10,16,16,11.90
2020,04,10,16,17,11.90
2020,04,10,16,18,11.80
2020,04,10,16,19,11.80
2020,04,10,16,20,11.80
2020,04,10,16,21,11.80
2020,04,10,16,22,11.80
2020,04,10,16,23,11.60
2020,04,10,16,24,11.50
2020,04,10,16,25,11.50
2020,04,10,16,26,11.50
2020,04,10,16,27,11.40
2020,04,10,16,28,11.30
2020,04,10,16,29,11.30
2020,04,10,16,30,11.30
2020,04,10,16,31,11.30
2020,04,10,16,32,11.30
2020,04,10,16,33,11.20
2020,04,10,16,34,11.20
2020,04,10,16,35,11.20
2020,04,10,16,36,11.10
2020,04,10,16,37,10.90
2020,04,10,16,38,10.80
2020,04,10,16,39,10.70
2020,04,10,16,40,10.60
2020,04,10,16,41,10.60
2020,04,10,16,42,10.50
2020,04,10,16,43,10.40
2020,04,10,16,44,10.30
2020,04,10,16,45,10.30
2020,04,10,16,46,10.30
2020,04,10,16,47,10.30
2020,04,10,16,48,10.30
2020,04,10,16,49,10.30
2020,04,10,16,50,10.30
2020,04,10,16,51,10.40
2020,04,10,16,52,10.50
2020,04,10,16,53,10.60
2020,04,10,16,54,10.70
2020,04,10,16,55,10.70
2020,04,10,16,56,10.70
2020,04,10,16,57,10.70
2020,04,10,16,58,10.70
2020,04,10,16,59,10.70
2020,04,10,17,00,10.70
2020,04,10,17,01,10.70
2020,04,10,17,02,10.70
2020,04,10,17,03,10.70
2020,04,10,17,04,10.80
2020,04,10,17,05,10.80
2020,04,10,17,06,10.70
2020,04,10,17,07,10.60
2020,04,10,17,08,10.60
2020,04,10,17,09,10.60
2020,04,10,17,10,10.50
2020,04,10,17,11,10.40
2020,04,10,17,12,10.30
2020,04,10,17,13,10.30
2020,04,10,17,14,10.20
2020,04,10,17,15,10.20
2020,04,10,17,16,10.10
2020,04,10,17,17,10.10
2020,04,10,17,18,10.10
2020,04,10,17,19,10.00
2020,04,10,17,20,10.00
2020,04,10,17,21,10.00
2020,04,10,17,22,10.00
2020,04,10,17,23,10.00
2020,04,10,17,24,10.00
2020,04,10,17,25,10.00
2020,04,10,17,26,9.90
2020,04,10,17,27,9.90
2020,04,10,17,28,9.90
2020,04,10,17,29,9.80
2020,04,10,17,30,9.80
2020,04,10,17,31,9.90
2020,04,10,17,32,9.90
2020,04,10,17,33,9.90
2020,04,10,17,34,9.80
2020,04,10,17,35,9.80
2020,04,10,17,36,9.80
2020,04,10,17,37,9.80
2020,04,10,17,38,9.80
2020,04,10,17,39,9.80
2020,04,10,17,40,9.80
2020,04,10,17,41,9.80
2020,04,10,17,42,9.70
2020,04,10,17,43,9.70
2020,04,10,17,44,9.70
2020,04,10,17,45,9.70
2020,04,10,17,46,9.70